Weather History for Rochelle, IL

Change the Weather History Date:

Wednesday, February 6, 2013

  Actual Average (KRFD) Record (KRFD)
Temperature  
Mean Temperature 23 °F 23 °F  
Max Temperature 37 °F 31 °F 54 °F (1946)
Min Temperature 9 °F 15 °F -20 °F (1982)
Degree Days  
Heating Degree Days 42 42  
Month to date heating degree days 253  
Since 1 July heating degree days 4162  
Cooling Degree Days 0 0  
Month to date cooling degree days 0  
Year to date cooling degree days 0  
Moisture  
Dew Point 24 °F    
Average Humidity 86    
Maximum Humidity 92    
Minimum Humidity 77    
Precipitation  
Precipitation 0.00 in 0.04 in 1.15 in (1911)
Month to date precipitation 0.24  
Year to date precipitation 1.61  
Snow  
Snow 0.00 in 0.30 in 11.50 in (1911)
Month to date snowfall 1.9  
Since 1 July snowfall 25.2  
Snow Depth -    
Sea Level Pressure  
Sea Level Pressure 30.13 in    
Wind  
Wind Speed 7 mph (SE)    
Max Wind Speed 17 mph    
Max Gust Speed -    
Visibility 9 miles    
Events      
T = Trace of Precipitation, MM = Missing Value Source: NWS Daily Summary

Daily Weather History Graph

Daily Weather History Graph

Search for Another Location

Airport:

Trip Planner

Search our weather history database for the weather conditions in past years. The results will help you decide how hot, cold, wet, or windy it might be!

Date:

Astronomy

Feb. 06, 2013 Rise Set
Actual Time 7:03 AM CST 5:18 PM CST
Civil Twilight 6:33 AM CST 5:47 PM CST
Nautical Twilight 6:00 AM CST 6:20 PM CST
Astronomical Twilight 5:28 AM CST 6:53 PM CST
Moon 3:48 AM CST (2/6) 1:34 PM CST (2/6)
Length of Visible Light 11h 13m
Length of Day
10h 15m
Waning Crescent, 17% of the Moon is Illuminated
Feb 6
Waning Crescent
Feb 10
New
Feb 17
First Quarter
Feb 25
Full
Mar 4
Last Quarter

Hourly Weather History & Observations

Time (CST) Temp. Windchill Dew Point Humidity Pressure Visibility Wind Dir Wind Speed Gust Speed Precip Events Conditions
12:15 AM 28.4 °F 22.2 °F 22.1 °F 77% 30.10 in 10.0 mi WNW 5.8 mph - N/A   Overcast
12:35 AM 28.2 °F 23.1 °F 22.3 °F 78% 30.10 in 10.0 mi NW 4.6 mph - N/A   Overcast
12:55 AM 27.7 °F 22.4 °F 22.1 °F 80% 30.11 in 10.0 mi North 4.6 mph - N/A   Overcast
1:15 AM 26.6 °F 20.0 °F 22.1 °F 83% 30.10 in 10.0 mi North 5.8 mph - N/A   Overcast
1:35 AM 25.7 °F 20.1 °F 20.7 °F 81% 30.11 in 10.0 mi North 4.6 mph - N/A   Overcast
1:55 AM 24.8 °F 17.9 °F 20.1 °F 82% 30.12 in 10.0 mi North 5.8 mph - N/A   Overcast
2:15 AM 23.9 °F 15.0 °F 19.9 °F 85% 30.12 in 10.0 mi NE 8.1 mph - N/A   Overcast
2:35 AM 22.3 °F 12.2 °F 17.8 °F 83% 30.12 in 10.0 mi NE 9.2 mph - N/A   Mostly Cloudy
2:55 AM 19.9 °F 12.1 °F 16.0 °F 85% 30.13 in 10.0 mi ENE 5.8 mph - N/A   Scattered Clouds
3:15 AM 20.5 °F 15.6 °F 17.1 °F 87% 30.14 in 10.0 mi East 3.5 mph - N/A   Mostly Cloudy
3:35 AM 17.2 °F 8.9 °F 14.4 °F 88% 30.14 in 10.0 mi ESE 5.8 mph - N/A   Overcast
3:55 AM 16.0 °F 8.8 °F 13.5 °F 90% 30.14 in 10.0 mi East 4.6 mph - N/A   Scattered Clouds
4:15 AM 14.4 °F 6.9 °F 12.0 °F 90% 30.14 in 10.0 mi ENE 4.6 mph - N/A   Clear
4:55 AM 12.7 °F 2.4 °F 10.4 °F 90% 30.16 in 10.0 mi East 6.9 mph - N/A   Clear
5:15 AM 13.5 °F 4.4 °F 10.9 °F 90% 30.17 in 10.0 mi ESE 5.8 mph - N/A   Clear
5:35 AM 14.2 °F 4.1 °F 11.7 °F 90% 30.17 in 10.0 mi ESE 6.9 mph - N/A   Clear
5:55 AM 12.7 °F 3.6 °F 9.9 °F 88% 30.16 in 10.0 mi East 5.8 mph - N/A   Clear
6:15 AM 10.9 °F 1.4 °F 8.4 °F 90% 30.17 in 10.0 mi ESE 5.8 mph - N/A   Clear
6:35 AM 11.3 °F -1.3 °F 8.8 °F 90% 30.16 in 10.0 mi ESE 9.2 mph - N/A   Clear
6:55 AM 9.1 °F 2.6 °F 6.1 °F 87% 30.17 in 10.0 mi SE 3.5 mph - N/A   Clear
7:35 AM 11.1 °F - 8.4 °F 89% 30.19 in 7.0 mi Calm Calm - N/A   Clear
7:55 AM 13.3 °F 7.3 °F 10.2 °F 88% 30.20 in 10.0 mi West 3.5 mph - N/A   Clear
8:15 AM 14.4 °F - 11.5 °F 88% 30.20 in 7.0 mi Calm Calm - N/A   Clear
8:35 AM 15.8 °F 10.2 °F 12.2 °F 86% 30.19 in 7.0 mi SE 3.5 mph - N/A   Clear
8:55 AM 18.3 °F - 13.1 °F 80% 30.19 in 10.0 mi Calm Calm - N/A   Clear
9:15 AM 21.0 °F 13.4 °F 16.3 °F 82% 30.19 in 10.0 mi SE 5.8 mph - N/A   Clear
9:35 AM 24.4 °F 16.5 °F 18.1 °F 77% 30.20 in 10.0 mi SSE 6.9 mph - N/A   Scattered Clouds
9:55 AM 25.9 °F 16.6 °F 20.5 °F 80% 30.20 in 10.0 mi SSE 9.2 mph - N/A   Scattered Clouds
10:15 AM 27.1 °F 17.5 °F 21.6 °F 80% 30.19 in 10.0 mi SSE 10.4 mph - N/A   Scattered Clouds
10:55 AM 28.9 °F 20.4 °F 22.8 °F 78% 30.21 in 7.0 mi SSE 9.2 mph - N/A   Clear
11:15 AM 29.7 °F 21.3 °F 23.5 °F 78% 30.20 in 10.0 mi SSE 9.2 mph - N/A   Scattered Clouds
11:35 AM 30.2 °F 22.6 °F 24.3 °F 79% 30.20 in 7.0 mi SE 8.1 mph - N/A   Scattered Clouds
11:55 AM 31.5 °F 22.9 °F 25.7 °F 79% 30.19 in 7.0 mi SSE 10.4 mph - N/A   Clear
12:15 PM 32.2 °F 22.7 °F 26.2 °F 79% 30.17 in 7.0 mi South 12.7 mph - N/A   Clear
12:55 PM 33.4 °F 24.8 °F 27.5 °F 79% 30.18 in 10.0 mi South 11.5 mph - N/A   Mostly Cloudy
1:15 PM 33.8 °F 26.4 °F 28.6 °F 81% 30.17 in 10.0 mi South 9.2 mph - N/A   Mostly Cloudy
1:35 PM 34.5 °F 27.3 °F 29.1 °F 81% 30.15 in 10.0 mi South 9.2 mph - N/A   Mostly Cloudy
1:55 PM 35.4 °F 28.4 °F 29.5 °F 79% 30.14 in 10.0 mi South 9.2 mph - N/A   Mostly Cloudy
2:15 PM 35.8 °F 29.4 °F 30.0 °F 80% 30.14 in 10.0 mi South 8.1 mph - N/A   Scattered Clouds
2:35 PM 35.6 °F 30.7 °F 30.2 °F 81% 30.14 in 10.0 mi South 5.8 mph - N/A   Scattered Clouds
2:55 PM 35.8 °F 28.8 °F 30.2 °F 80% 30.14 in 10.0 mi South 9.2 mph - N/A   Mostly Cloudy
3:15 PM 37.4 °F 32.1 °F 31.1 °F 78% 30.15 in 10.0 mi SSW 6.9 mph - N/A   Mostly Cloudy
3:35 PM 37.4 °F 30.8 °F 31.1 °F 78% 30.14 in 10.0 mi South 9.2 mph - N/A   Mostly Cloudy
3:55 PM 36.7 °F 32.0 °F 32.0 °F 83% 30.13 in 10.0 mi SSE 5.8 mph - N/A   Scattered Clouds
4:15 PM 34.9 °F 29.0 °F 31.6 °F 88% 30.11 in 10.0 mi SE 6.9 mph - N/A   Scattered Clouds
4:35 PM 34.7 °F 28.8 °F 31.8 °F 89% 30.12 in 10.0 mi SE 6.9 mph - N/A   Scattered Clouds
4:55 PM 34.7 °F 29.6 °F 31.6 °F 89% 30.11 in 10.0 mi SE 5.8 mph - N/A   Mostly Cloudy
5:15 PM 34.7 °F 27.5 °F 31.8 °F 89% 30.10 in 10.0 mi SE 9.2 mph - N/A   Overcast
5:35 PM 34.7 °F 27.5 °F 31.6 °F 89% 30.09 in 10.0 mi SE 9.2 mph - N/A   Overcast
5:55 PM 34.7 °F 27.5 °F 31.5 °F 88% 30.09 in 10.0 mi SSE 9.2 mph - N/A   Overcast
6:15 PM 34.7 °F 28.1 °F 31.6 °F 89% 30.09 in 10.0 mi SSE 8.1 mph - N/A   Overcast
6:35 PM 34.0 °F 28.0 °F 31.6 °F 91% 30.09 in 10.0 mi SSE 6.9 mph - N/A   Overcast
6:55 PM 33.8 °F 28.6 °F 31.8 °F 92% 30.09 in 10.0 mi South 5.8 mph - N/A   Overcast
7:15 PM 33.8 °F 27.0 °F 31.8 °F 92% 30.11 in 10.0 mi SSE 8.1 mph - N/A   Scattered Clouds
7:35 PM 33.8 °F 26.4 °F 31.6 °F 92% 30.11 in 10.0 mi SSE 9.2 mph - N/A   Scattered Clouds
7:55 PM 34.2 °F 26.8 °F 31.6 °F 90% 30.10 in 10.0 mi SE 9.2 mph - N/A   Mostly Cloudy
8:15 PM 34.2 °F 26.2 °F 31.6 °F 90% 30.08 in 10.0 mi SSE 10.4 mph - N/A   Overcast
8:35 PM 34.2 °F 26.2 °F 31.6 °F 90% 30.08 in 10.0 mi SSE 10.4 mph - N/A   Overcast
8:55 PM 34.0 °F 26.0 °F 31.8 °F 92% 30.09 in 10.0 mi SSE 10.4 mph - N/A   Overcast
9:15 PM 33.8 °F 25.3 °F 31.8 °F 92% 30.08 in 7.0 mi SSE 11.5 mph - N/A   Mostly Cloudy
9:35 PM 34.2 °F 24.4 °F 31.8 °F 91% 30.07 in 7.0 mi SSE 15.0 mph - N/A   Scattered Clouds
9:55 PM 33.8 °F 23.5 °F 31.8 °F 92% 30.07 in 7.0 mi SSE 16.1 mph - N/A   Scattered Clouds
10:15 PM 33.8 °F 23.2 °F 31.8 °F 92% 30.06 in 7.0 mi SSE 17.3 mph - N/A   Scattered Clouds
10:35 PM 33.8 °F 23.9 °F 31.6 °F 92% 30.05 in 7.0 mi SSE 15.0 mph - N/A   Clear
10:55 PM 33.8 °F 24.8 °F 31.5 °F 91% 30.06 in 7.0 mi SSE 12.7 mph - N/A   Clear
11:15 PM 33.8 °F 27.7 °F 31.5 °F 91% 30.07 in 7.0 mi SSE 6.9 mph - N/A   Clear
11:35 PM 33.8 °F 26.4 °F 31.1 °F 90% 30.07 in 7.0 mi SE 9.2 mph - N/A   Clear
11:55 PM 33.3 °F 25.7 °F 31.1 °F 92% 30.06 in 7.0 mi SSE 9.2 mph - N/A   Clear